SKYSAT-C6 (42992 NORAD) Tracking and Keplerian Element Data

This shows tracking and keplerian element data for the satellite.

Feedback or suggestion? Click here.




ElementValue
Catalog42992
NameSKYSAT-C6
Epoch Orbit21793
Epoch Day270.19138985
Epoch Year2021
RAAN26.2748
Inclination97.2763
Eccentricity0.0002544
Argument of Perigee70.7594
Mean Anonmoly289.3927
Mean Motion15.40563365
Decay Rate5.307E-05
L11 42992U 17068F 21270.19138985 .00005307 00000-0 13266-3 0 9990
L22 42992 97.2763 26.2748 0002544 70.7594 289.3927 15.40563365217938

Live tracking and technical data element details for SKYSAT-C6 (NORAD 42992). SKYSAT-C6 can be tracked NOW for your location showing map with azimuth and elevation plus other details from your city location.

Track the satellite on the map from your city or location and see movement details for azimuth, elevation, latitude, longitude, range, height, and movement on the map or in text.







IsCatalogInMostPopularTable: catalog: 42992, numindb: 541
Update: records affected: 1



GetName: 42992 SKYSAT-C6

Hit Count: updated at: Tue, 28 Sep 2021 16:23:12 GMT